Aircraft CS-LTW Data
= 1024"
:style="isLargeScreen ? 'max-height: calc(100vh - 6rem); overflow-y: auto;' : ''">
1
aircraft record found
CS-LTW
2022 Cessna C680A Citation Latitude, c/n 680A0312
Recent Routes
NO LIVE DATA
| Time | Callsign | FL | Speed | Heading | Route |
|---|---|---|---|---|---|
| 2026-09-05 17:42 UTC | NJE587L | FL99 | 287 kt | 220° | — |
| 2026-08-29 09:50 UTC | NJE161C | FL4 | 109 kt | 265° | — |
| 2026-08-28 18:18 UTC | NJE900E | — | 0 kt | 45° | — |
| 2026-08-28 11:36 UTC | NJE4QC | FL7 | 109 kt | 257° | — |
| 2026-08-27 16:36 UTC | NJE985L | FL239 | 376 kt | 290° | — |
| 2026-08-27 13:16 UTC | NJE879F | FL29 | 121 kt | 287° | — |
| 2026-08-27 11:24 UTC | NJE786V | FL127 | 148 kt | 316° | — |
| 2026-08-25 18:34 UTC | NJE004Q | — | 7 kt | 87° | — |
| 2026-08-25 13:06 UTC | NJE318U | — | 0 kt | 332° | — |
| 2026-08-25 10:10 UTC | NJE648B | — | 16 kt | 270° | — |
| 2026-08-24 20:00 UTC | NJE576D | FL7 | 109 kt | 239° | — |
| 2026-08-24 15:34 UTC | NJE865Q | — | 12 kt | 242° | — |
| 2026-08-24 13:18 UTC | FSEZG D | FL300 | 395 kt | 306° | — |
| 2026-08-23 19:12 UTC | NJE190H | — | 8 kt | 158° | — |
| 2026-08-23 16:00 UTC | NJE496F | FL82 | 264 kt | 106° | — |
| 2026-08-22 16:26 UTC | NJE847W | FL28 | 223 kt | 52° | — |
| 2026-08-22 14:12 UTC | NJE481R | — | 0 kt | 222° | — |
| 2026-08-22 11:06 UTC | NJE546L | FL12 | 125 kt | 152° | — |
| 2026-08-22 08:48 UTC | NJE932T | — | 3 kt | 135° | — |
| 2026-08-21 15:00 UTC | NJE103E | FL100 | 304 kt | 91° | — |
| 2026-08-21 11:38 UTC | NJE496N | FL375 | 102 kt | 74° | — |
| 2026-08-21 08:26 UTC | NJE997C | FL35 | 200 kt | 163° | — |
| 2026-08-20 16:32 UTC | NJE248B | — | 3 kt | 318° | — |
| 2026-08-20 12:58 UTC | NJE636Y | FL21 | 174 kt | 358° | — |
| 2026-08-20 10:06 UTC | NJE439E | FL14 | 114 kt | 157° | — |
| 2026-08-20 06:44 UTC | NJE297P | — | 12 kt | 98° | — |
| 2026-08-19 12:44 UTC | NJE808A | — | 12 kt | 93° | — |
| 2026-08-19 09:22 UTC | NJE086A | FL15 | 108 kt | 226° | — |
| 2026-08-18 11:54 UTC | NJE083D | — | 10 kt | 124° | — |
| 2026-08-18 08:06 UTC | NJE858U | — | 0 kt | 335° | — |
| 2026-08-17 14:10 UTC | NJE418W | FL13 | 132 kt | 232° | — |
| 2026-08-17 10:56 UTC | NJE871A | FL2 | 108 kt | 265° | — |
| 2026-08-17 09:10 UTC | NJE310B | — | 11 kt | 48° | — |
| 2026-08-17 06:38 UTC | NJE794N | — | 20 kt | 42° | — |
| 2026-08-16 16:08 UTC | NJE090N | — | 4 kt | 118° | — |
| 2026-08-16 10:12 UTC | NJE060V | FL4 | 97 kt | 251° | — |
| 2026-08-15 18:42 UTC | NJE389B | — | 3 kt | 318° | — |
| 2026-08-15 14:34 UTC | NJE857Y | — | 0 kt | 191° | — |
| 2026-08-14 15:26 UTC | NJE421N | — | 10 kt | 163° | — |
| 2026-08-14 12:32 UTC | NJE619D | — | 0 kt | 194° | — |
| 2026-08-14 08:34 UTC | NJE499M | FL5 | 108 kt | 206° | — |
| 2026-08-13 15:22 UTC | NJE104G | — | 11 kt | 11° | — |
| 2026-08-13 11:34 UTC | NJE319P | FL37 | 213 kt | 186° | — |
| 2026-08-12 13:50 UTC | NJE974C | — | 31 kt | 349° | — |
| 2026-08-12 10:34 UTC | NJE760B | — | 3 kt | 312° | — |
Live location data from OpenSky Network
Airframe Info
| Manufacturer | Cessna |
| Model | C680A Citation Latitude Search all Cessna C680A Citation Latitude |
| Year built | 2022 |
| Construction Number (C/N) | 680A0312 |
| Aircraft Type | Fixed wing multi engine |
| Number of Engines | 2 |
| Engine Type | None |
Aircraft
| Registration Number | CS-LTW |
| Mode S (ICAO24) Code | 493297 |
| Current Status | Registered |
Owner
| Owner | NetJets Europe |
| Address |
, Portugal |